Home   Weather   Temple   Past weeks

Flag for USA Past Weather in Temple, Texas, USA — Yesterday and Last 2 Weeks

Now
60 °F

Partly sunny.


Feels Like: 55 °F
Forecast: 48 / 61 °F
Wind: 32 mph from Northwest

Location: Fort Hood AAF Airport

Current Time: Jan 22, 2017 at 12:32:46 pm

Latest Report: Jan 22, 2017 at 11:58 am


Visibility: 10 mi

Pressure: 29.72 "Hg

Humidity: 51%

Dew Point: 41 °F

Location of TempleLocation

Past Weather in Temple — Graph

°F

Temple Temperature Yesterday

Maximum temperature yesterday: 75 °F (at 2:58 pm)
Minimum temperature yesterday: 47 °F (at 3:58 am)
Average temperature yesterday: 60 °F

High & Low Weather Summary for the Past Weeks

 TemperatureHumidityPressure
High77 °F (Jan 10, 2:55 pm)100% (Jan 13, 11:55 am)30.40 "Hg (Jan 13, 11:55 am)
Low45 °F (Jan 13, 9:55 pm)20% (Jan 20, 3:58 pm)29.37 "Hg (Jan 21, 3:58 pm)
Average59 °F72%29.91 "Hg
* Reported Jan 9 9:59 am — Jan 22 10:58 am, Temple, Weather by CustomWeather, © 2017

Note: Actual official high and low records may vary slightly from our data, if they occured in-between our weather recording intervals... More about our weather records

Advertising

Temple Weather History for the Previous 24 Hours

Scroll right to see more
 ConditionsComfort  
Time TempWeatherWind HumidityBarometerVisibility
10:58 am
Sun, Jan 22
59 °FPartly sunny.28 mph55%29.70 "Hg10 mi
9:58 am58 °FPartly sunny.30 mph55%29.67 "Hg10 mi
9:42 am57 °FScattered clouds.28 mph55%29.66 "Hg10 mi
8:58 am57 °FSunny.28 mph55%29.59 "Hg10 mi
7:58 am55 °FPassing clouds.29 mph52%29.52 "Hg9 mi
6:58 am56 °FOvercast.16 mph39%29.49 "Hg9 mi
5:58 am56 °FPassing clouds.22 mph34%29.46 "Hg10 mi
4:58 am56 °FClear.22 mph35%29.46 "Hg10 mi
3:58 am56 °FClear.21 mph34%29.46 "Hg10 mi
2:58 am56 °FClear.15 mph37%29.47 "Hg10 mi
1:58 am57 °FClear.20 mph38%29.48 "Hg10 mi
12:58 am58 °FClear.23 mph38%29.47 "Hg10 mi
11:58 pm
Sat, Jan 21
57 °FMostly cloudy.14 mph53%29.48 "Hg10 mi
10:58 pm56 °FPassing clouds.13 mph57%29.52 "Hg10 mi
9:58 pm55 °FMostly cloudy.3 mph73%29.50 "Hg10 mi
8:58 pm55 °FPassing clouds.9 mph74%29.51 "Hg8 mi
8:41 pm55 °FPartly cloudy.14 mph72%29.54 "Hg5 mi
8:07 pm64 °FLight rain. Mostly cloudy.31 mph40%29.55 "Hg10 mi
7:58 pm65 °FPassing clouds.25 mph38%29.52 "Hg10 mi
6:58 pm68 °FMostly cloudy.18 mph32%29.45 "Hg10 mi
5:58 pm68 °FPassing clouds.17 mph38%29.41 "Hg10 mi
5:10 pm73 °FScattered clouds.14 mph29%29.41 "Hg10 mi
4:58 pm74 °FPartly sunny.13 mph34%29.38 "Hg10 mi
3:58 pm74 °FCloudy.8 mph39%29.37 "Hg10 mi
2:58 pm75 °FPartly sunny.10 mph37%29.38 "Hg10 mi
1:58 pm73 °FSunny.7 mph48%29.39 "Hg10 mi
12:58 pm66 °FOvercast.7 mph70%29.43 "Hg10 mi
Weather by CustomWeather, © 2017

See weather overviewHow to use our weather pages